Theta_e
314 314 314 313 313 314 315 315 315 315 314 313 313 311 309 308 307 298 292 294 291 285 285 287 287 284 282 281 281 281 280 279 278 276 276 274 274 275 274 275 275 275 271 271 272 270 270 281 284 280 281 280 287 286
312 313 313 313 312 313 314 314 314 314 313 313 312 312 310 308 307 301 293 296 294 289 288 290 290 289 288 287 284 280 281 279 281 277 274 274 276 271 274 272 275 274 278 276 277 278 281 285 285 287 284 285 287 287
309 310 311 311 312 312 313 313 313 313 313 312 312 312 311 309 307 303 295 296 295 288 288 287 288 292 290 289 289 283 281 283 281 281 277 278 277 277 273 272 273 276 278 278 279 282 282 283 286 287 287 286 288 289
307 308 309 310 311 312 312 312 312 313 313 313 313 313 312 310 308 304 297 298 296 293 287 286 289 287 289 289 288 288 285 284 283 281 277 277 278 280 277 278 276 278 278 278 277 282 282 285 284 285 286 288 287 288
306 307 307 308 309 310 312 312 312 312 312 313 313 312 312 310 308 304 300 300 301 292 285 285 288 288 287 287 288 287 286 283 281 278 276 278 280 278 276 276 276 278 279 279 281 285 284 286 285 285 284 284 286 287
305 305 306 307 307 309 308 310 311 311 311 311 311 311 311 310 307 301 294 300 301 299 291 284 287 283 285 286 286 285 285 283 282 280 279 280 281 279 274 274 284 282 284 287 287 287 284 287 285 285 285 285 285 286
304 304 305 305 306 307 307 308 309 310 310 311 311 310 310 309 304 295 291 296 302 301 291 285 283 283 284 284 284 284 284 284 282 281 280 280 281 280 275 277 284 283 284 285 287 284 283 283 285 285 286 287 289 286
303 303 304 304 304 305 306 306 307 308 309 310 310 310 310 308 304 296 299 303 302 295 294 285 283 280 284 281 280 284 283 283 281 280 279 279 280 280 277 285 285 288 289 288 286 286 288 290 283 284 285 285 285 286
302 303 302 302 303 304 304 304 305 306 307 308 309 310 308 300 294 294 302 303 300 294 285 285 282 279 283 282 282 282 283 279 283 278 279 281 278 276 282 284 284 285 284 283 285 286 284 283 285 283 284 284 284 285
301 302 302 302 303 303 303 303 304 305 306 307 303 293 285 290 302 301 294 291 290 290 289 284 284 279 282 281 281 281 281 281 275 279 281 277 279 286 286 287 287 287 285 284 281 281 281 280 282 283 282 285 286 287
301 301 301 301 302 302 302 302 303 304 305 296 288 286 293 300 293 288 283 283 283 282 285 286 286 279 283 280 280 283 279 280 272 275 275 273 274 280 287 288 290 289 287 285 286 288 287 284 285 283 282 283 284 285
300 300 301 301 301 301 300 300 303 299 295 295 292 294 294 285 284 281 280 282 282 281 284 284 285 284 282 286 282 281 278 278 274 277 275 273 278 283 282 282 283 283 283 283 284 285 285 284 283 283 283 283 284 285
300 300 300 300 300 300 300 300 301 302 299 294 287 284 282 283 278 277 275 278 279 280 285 284 282 283 283 285 283 281 277 275 279 275 273 275 281 282 279 281 282 283 282 282 282 283 283 283 283 283 283 283 284 284
299 300 300 300 299 300 300 299 301 300 294 285 281 277 278 278 279 280 278 279 282 284 285 287 281 283 284 283 282 278 280 278 273 270 270 278 283 285 282 283 282 282 283 283 283 283 283 283 283 283 283 283 283 283
298 299 299 298 299 300 300 300 301 297 291 283 283 277 278 282 282 278 276 280 281 288 287 284 284 283 282 282 282 280 275 272 274 274 278 283 284 283 282 282 281 282 282 282 282 282 282 282 282 282 282 282 283 283
297 297 295 298 298 299 300 299 297 293 287 284 283 282 283 281 277 274 279 276 286 288 288 284 281 280 280 282 278 275 272 271 275 279 284 283 282 282 283 283 283 283 283 282 282 282 282 282 282 281 281 281 282 282
297 291 296 298 298 299 299 292 290 287 286 282 280 284 285 285 284 284 281 283 289 287 282 282 279 278 282 278 276 277 274 280 282 283 284 283 284 284 283 283 284 284 283 280 280 282 282 282 281 280 280 280 280 281
291 291 297 297 297 294 290 287 286 285 280 282 281 283 284 287 285 285 284 287 287 286 286 281 284 279 278 274 275 285 278 281 283 285 284 284 283 283 283 283 284 284 281 280 279 278 277 277 280 280 278 277 277 277
292 292 296 297 295 288 285 285 285 279 280 281 282 279 286 286 285 289 287 288 290 288 285 284 282 280 280 280 284 277 282 284 286 284 283 283 282 282 282 280 280 280 279 277 276 278 280 280 281 280 279 278 278 277
297 297 297 297 295 286 282 282 284 281 275 279 277 282 286 286 287 286 286 287 287 286 284 282 284 284 286 291 282 285 287 287 284 282 282 282 283 279 280 281 282 281 281 277 276 281 278 279 279 279 279 280 278 278
294 292 295 294 286 286 284 283 280 277 275 277 280 285 283 282 285 284 285 287 285 284 284 284 287 291 283 281 285 286 286 285 285 288 285 283 282 282 278 278 275 279 280 279 280 279 283 280 278 278 277 279 279 279
289 294 285 288 286 285 283 282 277 278 280 279 282 284 281 281 282 284 286 284 284 285 287 288 287 281 283 282 285 285 286 285 284 284 286 285 280 278 277 279 277 280 280 280 280 279 279 276 277 278 278 277 279 278
292 290 285 285 281 281 277 284 280 281 278 280 281 279 280 280 283 286 282 284 285 286 289 285 286 283 286 285 284 283 283 284 283 282 284 284 284 281 280 280 280 279 278 278 277 277 275 280 282 279 278 279 278 280
292 284 280 280 280 274 276 277 279 279 280 279 279 278 278 278 284 282 278 277 278 277 286 288 288 283 279 278 280 282 284 285 283 280 282 282 282 282 282 282 281 281 281 277 277 277 277 280 284 282 280 279 280 277
280 278 280 276 276 276 275 274 276 276 276 278 275 274 275 279 278 276 271 273 276 283 286 287 288 288 287 287 286 281 283 285 285 285 283 282 282 273 275 277 280 281 280 278 280 282 281 282 282 280 279 279 276 274
275 279 276 274 271 272 274 271 272 273 271 270 273 273 274 275 273 273 274 278 279 285 286 287 286 286 286 287 287 287 287 285 285 283 285 282 282 282 281 278 277 279 280 282 282 282 281 281 279 279 278 279 280 273
275 277 277 279 277 274 273 273 275 275 274 273 273 272 274 274 274 274 276 277 280 279 278 284 288 287 287 287 286 279 279 283 283 282 279 281 282 283 283 281 278 280 281 282 283 283 280 278 278 278 278 278 275 274
275 276 273 274 273 275 275 275 274 275 276 276 276 273 275 276 277 278 276 271 265 263 263 264 267 271 272 272 273 276 275 276 278 280 281 280 277 270 273 273 275 285 284 285 284 282 280 279 279 278 276 273 273 273
272 274 276 273 273 274 275 277 277 277 278 277 277 276 277 276 274 272 268 265 260 263 267 271 274 273 277 278 276 277 279 280 279 278 278 279 278 280 277 277 282 283 284 284 285 282 280 280 279 277 275 273 272 272
273 277 275 274 274 274 273 271 272 272 273 273 272 271 270 269 268 265 266 262 264 265 266 270 274 279 279 279 277 277 280 281 280 279 280 280 279 281 283 282 282 282 283 282 281 282 284 279 276 272 270 270 270 270
274 273 271 270 271 269 269 269 269 269 265 265 264 266 268 267 268 266 265 264 266 266 270 272 273 276 279 278 278 278 277 278 280 283 275 277 279 282 281 281 281 281 281 280 279 276 274 272 271 270 270 270 270 268
272 272 270 269 267 269 267 265 264 262 263 265 267 261 265 270 273 271 266 265 264 264 270 272 271 272 271 275 277 276 282 280 280 282 277 279 281 281 281 280 280 280 280 277 275 273 273 272 271 271 269 269 267 267
266 265 265 267 265 264 268 266 265 266 265 263 264 260 260 265 271 271 263 262 265 266 267 267 266 264 264 267 269 272 275 269 275 283 284 283 282 281 280 280 278 277 275 274 274 273 272 271 270 269 268 267 266 267
Wind_Speed
18 19 17 16 17 18 17 17 17 18 18 18 17 18 18 16 15 5 2 5 5 3 5 8 8 6 3 3 5 4 3 1 2 2 4 4 4 4 2 5 6 7 7 5 2 1 8 8 5 8 7 3 6 6
21 21 19 20 20 19 18 17 17 19 20 19 20 20 20 19 18 9 2 2 3 3 5 4 6 6 7 8 7 3 2 5 5 4 0 3 2 1 3 5 1 5 9 6 11 9 4 12 9 9 6 6 7 7
17 19 22 22 23 22 21 18 18 18 20 21 21 22 22 23 23 15 3 5 2 1 5 0 7 7 4 7 5 6 3 3 3 4 4 2 5 5 5 9 4 7 4 4 2 8 15 12 12 7 9 10 8 7
16 18 18 20 22 23 20 19 18 18 18 21 23 23 23 24 24 19 5 4 2 2 4 6 1 4 2 5 5 3 6 5 5 3 3 3 3 4 5 4 6 5 8 7 8 14 7 16 14 12 12 12 7 8
16 17 17 18 16 20 23 20 19 18 18 20 23 23 23 25 24 14 4 5 4 4 3 4 3 3 2 7 8 6 7 5 3 2 2 4 2 1 2 2 9 9 11 9 12 9 6 11 6 7 10 12 14 11
16 17 17 16 15 14 14 18 18 18 18 17 20 22 24 25 24 5 3 7 8 4 2 4 1 2 3 4 7 8 5 4 3 4 4 4 3 3 4 7 9 13 14 18 20 9 10 14 5 6 8 10 10 10
17 17 16 16 16 17 17 14 16 14 17 17 18 21 23 27 16 8 7 2 18 7 3 4 4 2 4 3 2 3 1 2 4 3 4 3 3 4 4 13 8 9 14 16 17 8 11 9 12 9 9 7 5 6
18 17 17 16 16 15 15 15 16 14 17 17 17 18 22 30 16 5 3 13 16 5 3 4 3 1 5 3 3 2 3 1 3 4 2 4 1 3 13 15 8 20 21 20 19 16 21 19 2 7 6 5 7 8
19 17 18 18 17 15 14 15 15 17 14 15 16 17 7 5 4 5 15 21 2 5 5 5 6 5 4 2 2 2 2 3 2 3 4 5 5 14 14 16 14 19 11 7 7 13 11 14 20 10 9 9 10 12
21 19 17 16 15 15 16 15 16 15 15 13 3 3 1 4 22 17 4 6 4 3 4 5 4 4 3 3 3 3 2 3 4 6 3 6 12 21 14 20 19 18 9 7 7 9 7 7 13 14 14 13 14 14
21 20 18 17 16 14 15 16 15 14 11 2 2 3 1 16 3 2 6 6 5 5 7 6 9 8 5 5 4 4 4 3 2 5 5 5 10 7 20 21 22 17 12 14 15 16 12 9 9 9 8 11 10 11
21 20 19 17 17 15 14 15 14 5 3 3 4 5 3 3 4 7 7 5 8 10 5 7 8 6 5 4 4 5 5 4 7 5 3 9 6 12 7 8 6 7 8 9 9 15 10 9 8 7 7 8 8 10
21 21 20 19 18 17 15 15 15 16 4 2 2 5 5 6 9 10 12 6 8 7 9 7 7 6 3 3 3 4 7 7 5 5 10 10 6 9 7 3 7 7 7 6 5 5 7 5 6 7 8 6 7 8
21 21 21 20 19 18 16 17 17 12 4 4 7 10 8 6 7 7 7 5 5 8 15 14 5 5 4 6 4 6 5 4 5 7 13 5 10 10 6 4 2 5 5 5 5 5 6 6 6 6 7 6 6 6
22 21 21 19 19 18 18 17 19 6 4 6 5 9 10 6 5 4 2 2 2 13 16 9 3 3 4 5 6 4 7 9 12 8 5 6 4 3 3 3 5 4 4 3 3 3 4 5 4 4 3 3 4 4
22 21 15 19 20 20 18 15 10 4 4 5 8 5 3 6 4 3 6 4 9 11 9 2 6 6 7 7 9 11 9 13 7 7 6 3 4 6 6 6 7 6 5 5 5 4 3 4 5 4 3 5 6 7
21 8 12 17 19 18 17 5 3 7 7 7 6 7 13 9 11 11 3 5 10 14 9 5 10 13 5 6 7 8 12 6 5 4 4 7 10 9 7 7 6 6 4 3 2 3 2 2 3 3 4 5 6 6
11 5 14 17 13 5 2 5 4 6 9 8 7 12 8 12 12 8 7 10 11 10 8 10 6 7 7 8 8 12 2 2 3 4 6 7 7 7 6 7 4 4 4 4 4 3 3 4 4 4 3 4 5 5
10 7 16 17 11 4 3 4 4 6 12 10 8 4 9 9 7 9 11 16 13 5 4 4 6 5 8 7 9 3 3 5 7 6 5 6 7 8 8 4 3 5 5 4 4 4 4 7 5 4 4 5 4 4
21 21 19 18 14 4 5 5 4 7 6 7 2 8 11 12 10 9 12 13 14 6 8 7 9 10 11 15 5 4 5 7 5 4 3 5 7 7 7 7 6 5 4 3 1 4 2 3 4 4 4 7 7 6
14 9 13 11 3 5 5 4 5 5 4 4 4 8 6 4 8 11 12 12 12 6 8 10 16 17 5 3 3 5 4 7 7 9 5 4 5 7 4 4 4 4 4 4 5 5 9 5 4 4 5 4 5 6
5 10 1 5 6 5 6 6 5 2 3 5 3 5 5 6 6 11 7 9 8 12 14 15 11 3 5 5 5 6 6 7 5 3 5 10 5 3 2 5 5 7 7 7 5 5 5 3 4 5 6 6 7 7
6 3 2 4 8 7 8 7 8 8 8 4 6 6 4 4 6 9 7 7 11 8 10 5 6 6 6 5 4 3 6 9 8 6 5 5 4 3 3 6 7 6 6 5 4 4 4 8 8 7 7 8 8 8
5 4 6 7 10 8 4 5 4 4 5 5 5 5 4 3 5 5 7 6 4 3 7 12 9 3 2 2 4 7 9 8 4 2 4 5 6 7 8 7 5 6 5 3 5 5 5 6 9 7 8 9 10 10
6 9 8 10 5 5 5 4 5 5 5 4 4 3 3 3 4 5 4 4 4 8 9 8 10 12 14 14 10 6 7 9 9 11 7 8 6 3 1 4 5 6 6 5 5 7 7 7 8 8 10 11 13 13
11 12 11 10 5 7 8 5 7 7 3 4 6 2 2 3 4 8 5 6 7 10 12 14 15 13 11 12 12 10 11 8 5 6 9 9 9 10 8 7 6 6 8 7 9 10 10 9 10 12 11 15 21 15
11 10 2 1 3 3 3 2 2 4 6 6 4 5 4 5 7 6 4 4 3 2 3 7 9 11 11 10 8 3 4 9 8 7 4 7 7 8 8 8 9 6 8 10 9 11 13 12 12 12 12 10 11 13
6 5 8 5 5 4 5 5 7 9 6 5 6 7 9 9 8 4 2 1 1 1 2 3 3 3 3 3 3 5 4 4 5 6 5 3 2 1 2 2 2 13 7 8 9 9 11 12 13 13 14 13 11 9
5 3 5 7 5 5 5 7 6 4 3 6 7 5 5 4 2 2 1 0 1 2 3 2 2 2 3 3 3 3 5 7 9 7 8 4 3 2 3 4 6 6 6 7 16 14 15 13 14 13 15 12 11 10
5 5 4 4 6 7 3 3 2 1 1 1 2 3 3 3 2 1 2 2 1 2 3 3 3 4 3 4 3 2 3 5 5 5 8 9 8 6 7 7 7 8 8 9 10 12 22 17 19 14 13 11 10 10
4 4 3 2 3 1 1 1 1 1 2 1 1 2 3 4 3 2 3 3 3 2 2 3 2 1 3 3 3 3 3 3 3 3 3 4 7 8 8 8 8 9 10 12 13 13 13 13 13 15 15 14 15 13
3 5 5 4 3 2 0 1 1 1 3 2 3 3 4 4 3 3 3 4 3 2 5 4 3 3 4 1 0 1 1 4 7 5 7 6 7 9 10 9 10 10 12 13 12 13 15 16 14 14 15 16 15 14
3 2 1 3 2 1 2 2 4 2 2 2 2 1 2 2 6 3 1 1 2 3 4 3 3 2 2 5 4 4 4 3 8 12 14 16 18 15 10 9 10 12 15 13 12 13 15 19 16 16 16 16 15 14
Wind_Direction
265 268 264 264 264 263 262 259 253 233 227 220 217 209 200 196 179 144 223 187 143 202 264 181 181 158 136 166 167 181 77 250 81 180 150 214 199 224 171 215 194 189 159 202 118 161 283 160 97 177 210 189 179 195
277 269 262 266 265 261 257 253 251 242 230 223 218 211 202 195 185 156 201 192 147 167 246 214 222 201 189 191 143 196 194 163 195 110 219 104 208 90 182 264 186 257 198 187 190 218 229 194 207 209 176 187 200 187
285 281 280 273 267 263 255 251 251 242 230 226 222 217 204 196 189 176 154 146 125 234 288 115 219 238 185 196 181 140 264 192 174 163 159 174 233 137 188 237 226 237 159 225 17 249 227 221 233 228 202 217 199 210
282 284 285 283 278 266 258 250 249 250 241 229 226 221 211 199 192 175 173 177 142 144 258 274 94 230 169 169 177 143 132 79 94 102 138 155 206 172 225 264 219 186 141 193 256 275 272 264 230 232 230 232 226 219
282 285 287 284 293 282 261 248 249 248 250 242 230 222 215 198 191 182 169 190 201 187 236 274 285 209 152 160 160 137 131 124 129 94 135 218 227 176 240 316 239 183 192 191 242 228 208 256 214 200 213 218 221 209
278 283 287 293 296 291 301 274 248 250 251 247 238 225 215 193 173 128 219 193 200 169 341 275 305 144 56 124 135 140 135 118 137 165 215 244 265 176 224 243 239 201 212 222 243 248 214 258 258 188 217 223 221 197
272 278 285 290 293 296 295 302 291 259 252 252 246 233 220 183 163 171 197 180 164 136 211 273 260 63 111 102 72 92 20 137 137 194 218 224 229 179 251 252 142 217 222 232 242 265 278 228 248 196 213 227 212 221
268 273 278 281 286 291 295 302 299 295 279 256 255 247 225 181 164 186 149 150 142 132 209 235 224 184 195 162 133 164 133 172 187 199 170 201 181 205 252 254 268 251 250 246 237 223 239 261 237 235 191 166 210 222
265 267 275 281 285 285 291 299 302 296 299 287 267 260 244 179 158 152 149 162 66 149 199 214 193 203 166 135 104 119 165 177 130 230 234 158 196 223 240 247 233 241 217 242 238 247 234 239 256 225 196 203 214 230
265 265 265 272 278 282 286 289 298 299 293 287 332 86 101 226 127 112 123 154 161 222 220 235 123 154 153 137 162 126 196 222 210 221 142 225 252 254 249 250 254 249 221 210 233 249 237 246 236 247 213 225 220 231
260 259 259 263 270 276 283 286 290 298 287 112 159 152 119 163 101 167 162 167 170 221 204 181 182 135 203 148 161 202 181 161 216 229 183 251 260 228 234 241 247 254 240 231 232 250 242 226 244 248 241 230 225 220
260 257 255 257 262 266 277 285 280 283 247 165 131 120 115 198 199 170 178 174 187 211 189 169 169 134 153 159 129 176 179 168 237 131 206 254 266 249 245 251 242 227 225 242 227 240 234 232 225 229 244 241 227 221
259 256 256 257 256 261 273 281 277 263 126 120 197 152 175 186 218 190 182 190 191 179 170 162 148 126 125 165 139 172 187 211 115 193 229 236 238 268 235 232 252 245 232 222 235 223 226 238 233 221 254 245 228 217
257 254 251 254 252 255 261 268 271 270 189 204 199 193 210 192 213 196 212 186 186 158 151 155 133 140 143 164 159 188 187 135 220 233 233 229 227 237 210 219 221 251 215 189 217 234 231 229 234 231 225 222 209 217
257 255 253 252 253 252 256 259 261 245 208 210 226 231 187 202 227 220 151 102 239 150 150 145 110 124 143 182 184 153 175 229 216 232 230 238 246 192 204 202 224 240 231 211 172 202 241 248 226 253 234 195 179 190
254 254 249 246 250 249 254 262 261 216 222 219 214 257 266 147 233 274 186 166 168 162 138 118 150 177 188 188 174 204 181 219 210 205 217 152 169 206 193 196 209 204 182 199 203 180 186 214 210 213 165 179 180 168
252 242 225 236 241 243 251 248 223 223 227 231 220 218 233 234 213 221 173 165 163 161 179 165 189 196 136 194 204 195 219 180 200 204 180 192 178 204 182 192 202 199 188 194 146 150 182 196 161 149 190 202 184 180
236 209 220 232 239 255 225 191 229 225 223 217 231 233 206 228 232 194 180 160 169 197 197 204 153 189 193 189 232 217 172 210 235 190 181 194 198 201 177 191 203 202 192 196 180 160 142 162 199 233 194 152 124 125
226 213 226 236 231 185 229 224 190 232 224 223 231 237 214 225 222 211 175 185 200 179 144 165 215 188 210 219 236 184 177 180 194 202 195 193 187 205 184 167 178 201 192 183 178 193 191 202 215 196 159 138 147 133
241 237 239 242 239 212 222 227 175 233 205 217 215 217 217 221 220 191 183 182 195 199 211 210 218 220 217 222 187 184 192 174 142 151 204 201 197 183 189 174 197 201 180 151 210 203 191 207 194 179 168 163 150 163
243 236 247 240 218 196 247 231 235 220 223 206 195 206 226 191 188 187 189 178 197 207 207 213 224 229 188 247 189 165 163 153 199 208 191 171 180 187 170 177 157 167 185 189 193 218 215 212 170 161 159 163 151 142
207 199 183 225 221 222 230 211 209 211 203 218 209 204 203 196 188 191 157 197 214 221 213 218 216 163 183 199 199 194 174 148 158 152 106 120 128 139 178 185 157 209 205 210 197 204 210 162 156 152 144 140 146 134
215 189 187 211 225 221 246 160 205 189 215 229 177 192 218 207 190 135 201 213 229 221 208 209 183 176 183 182 149 160 176 170 185 195 181 186 167 149 170 185 197 191 209 235 177 186 180 174 175 152 146 143 140 148
160 198 208 222 200 226 168 200 218 214 200 192 206 215 196 171 156 208 232 227 238 187 185 201 191 162 71 58 188 200 200 195 188 135 159 168 207 221 210 215 201 211 199 137 160 167 164 154 162 159 152 156 156 143
216 219 213 235 221 200 207 202 194 230 215 174 184 222 191 182 199 236 225 239 207 197 195 189 197 208 217 223 217 213 186 182 194 214 202 199 207 77 172 210 217 212 164 163 168 157 163 159 160 160 164 161 148 143
216 217 214 197 186 178 183 202 198 199 180 176 213 222 155 165 214 241 216 201 202 200 198 198 201 206 216 219 222 219 218 192 177 192 225 191 193 204 208 195 206 235 203 183 162 171 167 163 161 161 156 160 156 138
222 224 195 148 171 153 187 210 176 176 189 185 178 184 181 212 235 251 249 219 210 233 242 208 198 202 214 215 219 202 146 165 177 204 174 179 192 194 183 191 207 219 163 172 171 171 164 161 163 160 150 146 147 146
222 181 172 192 218 192 180 197 190 198 183 167 147 190 190 206 226 229 226 10 117 121 70 33 63 107 120 126 124 119 94 112 112 98 89 85 79 180 183 181 148 153 151 159 157 151 155 155 153 152 144 138 137 143
197 185 153 185 226 195 229 202 210 211 145 165 184 194 231 236 309 303 278 288 347 77 82 114 73 107 108 130 127 130 143 154 151 157 188 193 162 199 155 142 134 125 127 141 157 148 148 145 147 143 134 131 127 124
200 147 184 212 218 203 192 187 262 311 336 325 316 317 309 283 252 160 129 75 106 214 191 160 124 135 148 154 151 144 174 180 185 174 196 197 199 151 148 137 131 127 129 132 134 140 136 122 117 113 113 118 119 124
133 127 164 195 228 229 224 263 278 353 8 315 297 200 258 298 287 199 181 171 163 184 155 122 116 173 143 143 144 153 194 211 205 195 147 111 137 144 138 137 131 128 132 134 133 134 136 129 128 126 127 128 139 135
140 162 164 169 210 208 144 129 126 74 316 18 331 354 329 359 296 262 179 135 129 196 217 161 157 217 213 240 140 208 40 146 169 159 145 139 137 137 131 130 130 134 132 128 131 133 133 131 131 129 131 132 133 134
100 122 109 133 125 247 232 99 30 11 21 15 320 292 258 222 243 264 47 99 178 186 185 185 199 196 173 191 193 212 196 174 157 159 159 148 140 136 129 129 127 127 127 127 133 132 132 127 127 131 130 132 130 132